Albert Lea, MN

4:26 PM CDT on March 27, 2017 (GMT -0500)
Albert Lea Municipal

Weather History for KAEL - November, 2013

Change the Weather History Date:

Wednesday, November 6, 2013

  Actual Average Record
Temperature  
Mean Temperature 34 °F -  
Max Temperature 39 °F 45 °F 73 °F (2004)
Min Temperature 30 °F 29 °F 12 °F (2003)
Degree Days  
Heating Degree Days 30    
Moisture  
Dew Point 29 °F    
Average Humidity 85    
Maximum Humidity 100    
Minimum Humidity 52    
Precipitation  
Precipitation 0.00 in - - ()
Sea Level Pressure  
Sea Level Pressure 30.08 in    
Wind  
Wind Speed 12 mph (WNW)    
Max Wind Speed 20 mph    
Max Gust Speed 29 mph    
Visibility 9 miles    
Events Snow    
Averages and records for this station are not official NWS values.
T = Trace of Precipitation, MM = Missing Value Source: NWS Daily Summary

Daily Weather History Graph

Daily Weather History Graph

Search for Another Location

Airport or City:

Trip Planner

Search our weather history database for the weather conditions in past years. The results will help you decide how hot, cold, wet, or windy it might be!

Date:

Astronomy

Nov. 06, 2013 Rise Set
Actual Time 6:56 AM CST 4:57 PM CST
Civil Twilight 6:25 AM CST 5:27 PM CST
Nautical Twilight 5:51 AM CST 6:01 PM CST
Astronomical Twilight 5:18 AM CST 6:35 PM CST
Moon 10:14 AM CST (11/6) 8:00 PM CST (11/6)
Length of Visible Light 11h 01m
Length of Day
10h 01m
Waxing Crescent, 14% of the Moon is Illuminated
Nov 6
Waxing Crescent
Nov 9
First Quarter
Nov 17
Full
Nov 25
Last Quarter
Dec 2
New

Hourly Weather History & Observations

Time (CST) Temp. Windchill Dew Point Humidity Pressure Visibility Wind Dir Wind Speed Gust Speed Precip Events Conditions
12:14 AM 33.8 °F 23.2 °F 33.8 °F 100% 29.92 in 4.0 mi North 17.3 mph 26.5 mph N/A Snow Light Snow
12:34 AM 33.8 °F 23.2 °F 33.8 °F 100% 29.93 in 4.0 mi North 17.3 mph 24.2 mph N/A   Overcast
12:54 AM 33.8 °F 24.3 °F 33.8 °F 100% 29.93 in 5.0 mi North 13.8 mph 25.3 mph N/A   Overcast
1:13 AM 33.8 °F 23.5 °F 33.8 °F 100% 29.93 in 5.0 mi North 16.1 mph 26.5 mph N/A   Overcast
1:34 AM 33.8 °F 22.8 °F 33.8 °F 100% 29.93 in 4.0 mi North 18.4 mph 25.3 mph N/A   Overcast
1:54 AM 33.8 °F 22.8 °F 33.8 °F 100% 29.94 in 5.0 mi North 18.4 mph 25.3 mph N/A   Overcast
2:14 AM 33.8 °F 24.3 °F 33.8 °F 100% 29.95 in 5.0 mi NNW 13.8 mph 26.5 mph N/A Snow Light Snow
2:34 AM 33.8 °F 24.3 °F 33.8 °F 100% 29.95 in 5.0 mi North 13.8 mph 27.6 mph N/A Snow Light Snow
2:53 AM 33.8 °F 23.5 °F 33.8 °F 100% 29.96 in 5.0 mi NNW 16.1 mph 21.9 mph N/A Snow Light Snow
3:14 AM 33.8 °F 23.5 °F 33.8 °F 100% 29.96 in 7.0 mi NNW 16.1 mph 24.2 mph N/A Snow Light Snow
3:34 AM 33.8 °F 22.5 °F 33.8 °F 100% 29.95 in 10.0 mi North 19.6 mph 25.3 mph N/A   Overcast
3:54 AM 33.8 °F 24.8 °F 33.8 °F 100% 29.97 in 10.0 mi North 12.7 mph 26.5 mph N/A   Overcast
4:14 AM 33.8 °F 22.8 °F 33.8 °F 100% 29.96 in 10.0 mi North 18.4 mph 23.0 mph N/A   Overcast
4:34 AM 33.8 °F 24.3 °F 33.8 °F 100% 29.97 in 10.0 mi NNW 13.8 mph 28.8 mph N/A   Overcast
4:54 AM 33.8 °F 25.3 °F 33.8 °F 100% 29.98 in 10.0 mi NNW 11.5 mph 23.0 mph N/A   Overcast
5:14 AM 33.8 °F 24.3 °F 33.8 °F 100% 29.99 in 10.0 mi NNW 13.8 mph 23.0 mph N/A   Overcast
5:34 AM 33.8 °F 23.9 °F 33.8 °F 100% 30.00 in 10.0 mi NNW 15.0 mph 20.7 mph N/A   Overcast
5:54 AM 33.8 °F 26.4 °F 33.8 °F 100% 30.00 in 10.0 mi NNW 9.2 mph 18.4 mph N/A   Overcast
6:14 AM 33.8 °F 25.8 °F 33.8 °F 100% 29.99 in 10.0 mi NNW 10.4 mph 17.3 mph N/A   Overcast
6:33 AM 32.0 °F 26.4 °F 32.0 °F 100% 30.00 in 10.0 mi NNW 5.8 mph - N/A   Scattered Clouds
6:54 AM 30.2 °F 22.6 °F 30.2 °F 100% 30.01 in 10.0 mi NNW 8.1 mph - N/A   Mostly Cloudy
7:14 AM 30.2 °F 20.2 °F 30.2 °F 100% 30.01 in 10.0 mi NW 12.7 mph 17.3 mph N/A   Overcast
7:34 AM 30.2 °F 21.9 °F 30.2 °F 100% 30.02 in 10.0 mi NW 9.2 mph 20.7 mph N/A   Overcast
7:54 AM 30.2 °F 21.9 °F 30.2 °F 100% 30.03 in 10.0 mi NNW 9.2 mph 16.1 mph N/A   Overcast
8:14 AM 32.0 °F 23.6 °F 32.0 °F 100% 30.04 in 10.0 mi NW 10.4 mph 17.3 mph N/A   Overcast
8:34 AM 30.2 °F 23.4 °F 30.2 °F 100% 30.05 in 10.0 mi NW 6.9 mph - N/A   Overcast
8:54 AM 32.0 °F 25.6 °F 30.2 °F 93% 30.06 in 10.0 mi NW 6.9 mph - N/A   Scattered Clouds
9:14 AM 32.0 °F 22.5 °F 30.2 °F 93% 30.06 in 10.0 mi NW 12.7 mph 17.3 mph N/A   Clear
9:34 AM 33.8 °F 25.8 °F 32.0 °F 93% 30.07 in 10.0 mi NW 10.4 mph 16.1 mph N/A   Clear
9:54 AM 33.8 °F 25.8 °F 30.2 °F 87% 30.08 in 10.0 mi NW 10.4 mph 18.4 mph N/A   Clear
10:14 AM 33.8 °F 27.0 °F 30.2 °F 87% 30.09 in 10.0 mi NW 8.1 mph 18.4 mph N/A   Clear
10:34 AM 33.8 °F 27.0 °F 32.0 °F 93% 30.09 in 10.0 mi NW 8.1 mph - N/A   Clear
10:54 AM 33.8 °F 25.8 °F 32.0 °F 93% 30.10 in 10.0 mi WNW 10.4 mph 16.1 mph N/A   Clear
11:13 AM 33.8 °F 26.4 °F 32.0 °F 93% 30.10 in 10.0 mi WNW 9.2 mph 17.3 mph N/A   Clear
11:34 AM 33.8 °F 25.8 °F 32.0 °F 93% 30.10 in 10.0 mi WNW 10.4 mph - N/A   Clear
11:54 AM 33.8 °F 27.0 °F 30.2 °F 87% 30.10 in 10.0 mi WNW 8.1 mph 17.3 mph N/A   Clear
12:13 PM 35.6 °F 28.0 °F 30.2 °F 81% 30.10 in 10.0 mi West 10.4 mph - N/A   Clear
12:34 PM 37.4 °F 30.8 °F 26.6 °F 65% 30.10 in 10.0 mi WNW 9.2 mph - N/A   Clear
12:54 PM 37.4 °F 30.8 °F 26.6 °F 65% 30.10 in 10.0 mi West 9.2 mph 16.1 mph N/A   Clear
1:13 PM 39.2 °F 33.6 °F 26.6 °F 61% 30.11 in 10.0 mi WNW 8.1 mph 16.1 mph N/A   Clear
1:34 PM 39.2 °F 32.5 °F 24.8 °F 56% 30.11 in 10.0 mi WNW 10.4 mph 17.3 mph N/A   Clear
1:54 PM 39.2 °F 33.6 °F 23.0 °F 52% 30.11 in 10.0 mi WNW 8.1 mph 17.3 mph N/A   Clear
2:13 PM 39.2 °F 31.6 °F 23.0 °F 52% 30.12 in 10.0 mi WNW 12.7 mph 17.3 mph N/A   Clear
2:34 PM 37.4 °F 30.3 °F 24.8 °F 60% 30.12 in 10.0 mi WNW 10.4 mph - N/A   Clear
2:54 PM 37.4 °F 30.8 °F 24.8 °F 60% 30.14 in 10.0 mi West 9.2 mph 16.1 mph N/A   Clear
3:14 PM 37.4 °F 30.3 °F 21.2 °F 52% 30.15 in 10.0 mi WNW 10.4 mph 16.1 mph N/A   Clear
3:34 PM 37.4 °F 31.4 °F 21.2 °F 52% 30.15 in 10.0 mi WNW 8.1 mph - N/A   Clear
3:54 PM 37.4 °F 31.4 °F 24.8 °F 60% 30.15 in 10.0 mi West 8.1 mph - N/A   Clear
4:14 PM 35.6 °F 29.2 °F 23.0 °F 60% 30.15 in 10.0 mi WNW 8.1 mph - N/A   Clear
4:34 PM 35.6 °F 31.7 °F 24.8 °F 65% 30.15 in 10.0 mi West 4.6 mph - N/A   Clear
4:54 PM 33.8 °F 30.8 °F 24.8 °F 70% 30.15 in 10.0 mi West 3.5 mph - N/A   Clear
5:14 PM 33.8 °F 30.8 °F 24.8 °F 70% 30.15 in 10.0 mi West 3.5 mph - N/A   Clear
5:34 PM 30.2 °F 26.7 °F 24.8 °F 80% 30.16 in 10.0 mi WSW 3.5 mph - N/A   Clear
5:54 PM 32.0 °F - 24.8 °F 75% 30.17 in 10.0 mi Calm Calm - N/A   Clear
6:14 PM 32.0 °F 27.5 °F 24.8 °F 75% 30.17 in 10.0 mi SW 4.6 mph - N/A   Clear
6:34 PM 30.2 °F - 24.8 °F 80% 30.17 in 10.0 mi Calm Calm - N/A   Clear
6:54 PM 30.2 °F 26.7 °F 24.8 °F 80% 30.18 in 10.0 mi West 3.5 mph - N/A   Clear
7:14 PM 30.2 °F 24.3 °F 24.8 °F 80% 30.18 in 10.0 mi West 5.8 mph - N/A   Clear
7:33 PM 30.2 °F 23.4 °F 24.8 °F 80% 30.18 in 10.0 mi WSW 6.9 mph - N/A   Clear
7:54 PM 30.2 °F 23.4 °F 24.8 °F 80% 30.17 in 10.0 mi West 6.9 mph - N/A   Clear
8:14 PM 30.2 °F 23.4 °F 24.8 °F 80% 30.17 in 10.0 mi West 6.9 mph - N/A   Clear
8:33 PM 30.2 °F 24.3 °F 26.6 °F 86% 30.17 in 10.0 mi West 5.8 mph - N/A   Clear
8:54 PM 30.2 °F 24.3 °F 24.8 °F 80% 30.17 in 10.0 mi WSW 5.8 mph - N/A   Clear
9:14 PM 30.2 °F 25.4 °F 24.8 °F 80% 30.18 in 10.0 mi WSW 4.6 mph - N/A   Clear
9:33 PM 30.2 °F 24.3 °F 24.8 °F 80% 30.18 in 10.0 mi WSW 5.8 mph - N/A   Clear
9:54 PM 30.2 °F 24.3 °F 24.8 °F 80% 30.18 in 10.0 mi WSW 5.8 mph - N/A   Scattered Clouds
10:14 PM 30.2 °F 22.6 °F 24.8 °F 80% 30.18 in 10.0 mi WSW 8.1 mph - N/A   Mostly Cloudy
10:33 PM 30.2 °F 23.4 °F 24.8 °F 80% 30.18 in 10.0 mi WSW 6.9 mph - N/A   Overcast
10:54 PM 30.2 °F 21.9 °F 26.6 °F 86% 30.18 in 10.0 mi WSW 9.2 mph - N/A   Overcast
11:14 PM 30.2 °F 23.4 °F 26.6 °F 86% 30.19 in 10.0 mi West 6.9 mph - N/A   Overcast
11:33 PM 30.2 °F 22.6 °F 26.6 °F 86% 30.19 in 10.0 mi West 8.1 mph - N/A   Mostly Cloudy
11:54 PM 30.2 °F 23.4 °F 26.6 °F 86% 30.19 in 10.0 mi WSW 6.9 mph - N/A   Overcast